Location: Julian California
(33.0790°N, 116.6010°W)
Time: 13:23:02
(UTC-07:00)

Cosmos 1697 Rocket - Pass Details

Date: 27 March 2019
Orbit: 834 x 842 km, 71.0° (Epoch: 22 April)

Event Time Altitude Azimuth Distance (km) Brightness Sun altitude
Rises 05:39:35 0° 331° (NNW) 3,385 5.7 -13.6°
Reaches altitude 10° 05:42:09 10° 324° (NW) 2,446 4.9 -13.1°
Maximum altitude 05:47:22 42° 255° (WSW) 1,177 3.0 -12.0°
Drops below altitude 10° 05:52:35 10° 186° (S) 2,430 4.9 -10.9°
Sets 05:55:07 0° 179° (S) 3,359 5.7 -10.4°
